Regional Weather Roundup
Issued by NWS

Home | Current Version | Previous Version | Graphics & Text | Print | Product List | Glossary On
Versions: 1 2 3 4 5 6 7 8 9 10 11 12 13 14 15 16 17 18 19 20 21 22 23 24 25 26 27 28 29 30 31 32 33 34 35 36 37 38 39 40 41 42 43 44 45 46 47 48 49 50
000
ASUS43 KFSD 180702
RWRSD

WEATHER ROUNDUP FOR SOUTH DAKOTA
NATIONAL WEATHER SERVICE SIOUX FALLS SD
100 AM CST MON DEC 18 2017

NOTE: "FAIR" INDICATES FEW OR NO CLOUDS BELOW 12,000 FEET WITH NO
SIGNIFICANT WEATHER AND/OR OBSTRUCTIONS TO VISIBILITY.


SDZ001>005-009-010-012>017-180800-
NORTHWEST AND NORTH CENTRAL SOUTH DAKOTA

CITY           SKY/WX    TMP DP  RH WIND       PRES   REMARKS
BUFFALO          N/A     32  22  66 W14       29.70F WCI  22
FAITH            N/A     31  22  69 W14       29.78F WCI  21
MOBRIDGE       CLOUDY    33  26  75 CALM      29.73F
$$

SDZ012>016-024>037-041>051-057-063-072>074-180800-
SOUTHWEST AND SOUTH CENTRAL SOUTH DAKOTA

CITY           SKY/WX    TMP DP  RH WIND       PRES   REMARKS
RAPID CTY ARPT CLOUDY    28  17  63 NW7       29.83F WCI  21
PIERRE         CLOUDY    27  26  96 W8        29.80F WCI  19
CUSTER         CLOUDY    28  15  58 NW7G18    29.81F WCI  21
ELLSWORTH AFB  CLOUDY    30  19  63 W6        29.82F WCI  24
PHILIP         CLOUDY    26  23  88 W8        29.83F WCI  18
PINE RIDGE     CLOUDY    27  20  75 SW8       29.89F WCI  19
SPEARFISH      FAIR      36  18  48 W17       29.81F
WINNER         FAIR      32  27  81 SW9       29.84S WCI  24
$$

SDZ004>011-016>023-039-040-180800-
NORTHEAST SOUTH DAKOTA

CITY           SKY/WX    TMP DP  RH WIND       PRES   REMARKS
ABERDEEN       CLOUDY    32  30  92 S13       29.78F WCI  22
WATERTOWN      CLOUDY    32  29  88 S10       29.80F WCI  24
BROOKINGS      CLOUDY    32  27  81 S9        29.84F WCI  24
SISSETON         N/A     38  31  76 SW12      29.78F
$$

SDZ017-020-022-023-036>040-048>070-180800-
SOUTHEAST SOUTH DAKOTA

CITY           SKY/WX    TMP DP  RH WIND       PRES   REMARKS
SIOUX FALLS    CLOUDY    31  27  85 S10       29.87F WCI  22
HURON          CLEAR     31  27  85 MISG      29.82F
CHAMBERLAIN    CLOUDY    32  30  94 W6        29.83F WCI  26
MITCHELL       CLEAR     33  26  75 S13       29.85F WCI  24
YANKTON        CLEAR     30  25  81 S9        29.90F WCI  22
$$

ABBREVIATIONS USED IN REMARKS
   TC - TEMPERATURE IN CELSIUS
  WCI - WIND CHILL INDEX
   HX - HEAT INDEX
  VSB - VISIBILITY




USA.gov is the U.S. government's official web portal to all federal, state and local government web resources and services.